Regional Weather Roundup
Issued by NWS Burlington, VT

Home | Current Version | Previous Version | Text Only | Print | Product List | Glossary On
Versions: 1 2 3 4 5 6 7 8 9 10 11 12 13 14 15 16 17 18 19 20 21 22 23 24 25 26 27 28 29 30 31 32 33 34 35 36 37 38 39 40 41 42 43 44 45 46 47 48 49 50
000
ASUS41 KBTV 241030
RWRBTV
VERMONT REGIONAL WEATHER ROUNDUP
NATIONAL WEATHER SERVICE BURLINGTON VT
600 AM EDT MON JUL 24 2017

NOTE: "FAIR" INDICATES FEW OR NO CLOUDS BELOW 12,000 FEET WITH NO
SIGNIFICANT WEATHER AND/OR OBSTRUCTIONS TO VISIBILITY.

* THESE REPORTS ARE NOT UNDER NWS QUALITY CONTROL AND/OR DO NOT
  REPORT WEATHER SUCH AS PRECIPITATION AND FOG.

VTZ001>019-241100-
_____VERMONT_____


CITY           SKY/WX    TMP DP  RH WIND       PRES   REMARKS
BURLINGTON     CLOUDY    64  58  80 S6        29.87R
MONTPELIER     LGT RAIN  59  54  83 S7        29.97R
MORRISVILLE    LGT RAIN  56  53  90 CALM      29.93R
ST. JOHNSBURY*   N/A     59  55  87 MISG      29.92R
LYNDONVILLE*   MOCLDY    57  52  84 CALM      29.96R
MIDDLEBURY*    DRIZZLE   63  53  71 SE3       29.90R
RUTLAND*       CLOUDY    64  45  49 SE12G21   29.89S
SPRINGFIELD    CLOUDY    61  55  81 CALM      29.94R
HIGHGATE*      LGT RAIN  62  54  74 E5        29.86S
NEWPORT*       MOCLDY    56  55  95 CALM      29.94S
BENNINGTON     LGT RAIN  61  46  57 SE16G24   29.88R
SUTTON*          N/A     57 N/A N/A MISG        N/A
ISLAND POND*     N/A     52 N/A N/A CALM        N/A
GALLUP MILLS*    N/A     55 N/A N/A MISG        N/A
UNION VILLAGE*   N/A     59 N/A N/A MISG        N/A
MT. MANSFIELD*   N/A     52 N/A N/A E26         N/A

_____LAKE CHAMPLAIN_____


CITY           SKY/WX    TMP DP  RH WIND       PRES   REMARKS
BURTON ISLAND*   N/A     68  54  60 S9          N/A
COLCHESTER RF*   N/A     64  59  82 W5          N/A
DIAMOND ISL*     N/A     63  59  88 E5          N/A

$$

NYZ007-026>031-035-052-083-087-241100-
_____NORTHERN NEW YORK_____


CITY           SKY/WX    TMP DP  RH WIND       PRES   REMARKS
PLATTSBURGH    CLOUDY    60  55  83 S3        29.85S
SARANAC LAKE   RAIN      55  55 100 NE6       29.86R FOG
MASSENA        LGT RAIN  60  56  86 E7        29.84R
OGDENSBURG*    LGT RAIN  58  56  95 E7        29.81R
POTSDAM*       HVY RAIN -33 -33 100 CALM      29.83R
STARK FALLS*     N/A     61 N/A N/A SE9         N/A
WATERTOWN      RAIN      67  67 100 CALM      29.74R FOG
FT DRUM        LGT RAIN  66  64  94 NE5       29.76R
ALBANY         LGT RAIN  64  59  83 SE6       29.86R
GLENS FALLS    LGT RAIN  61  58  90 S6        29.88R

$$
NHZ002-005-011-241100-
_____NEW HAMPSHIRE_____


CITY           SKY/WX    TMP DP  RH WIND       PRES   REMARKS
LEBANON        CLOUDY    64  48  56 CALM      29.93R
KEENE          CLOUDY    61  52  72 CALM      29.93R
MT WASHINGTON  FOG       41  41 100 SE17        N/A  VSB 1/8
PLYMOUTH       CLOUDY    59  57  92 CALM      29.95S
WHITEFIELD     MOCLDY    61  52  72 NW5       29.94S

$$

_____REGIONAL QUEBEC LOCATIONS_____


CITY           SKY/WX    TMP DP  RH WIND       PRES   REMARKS
MONTREAL       CLOUDY    63  48  59 NE13G20   29.86S
QUEBEC CITY    MOCLDY    55  45  67 NE6       30.01R
SHERBROOKE     MOCLDY    54  50  87 E6        29.94R

_____REGIONAL ONTARIO LOCATIONS_____


CITY           SKY/WX    TMP DP  RH WIND       PRES   REMARKS
OTTAWA         RAIN      57  55  94 E16G22    29.84R

______KEY______
VSB  - VISIBILITY IN MILES
WCI  - WIND CHILL INDEX
HX   - HEAT INDEX
$$
NNNN




USA.gov is the U.S. government's official web portal to all federal, state and local government web resources and services.